Volver al catálogo

FENGYUN 1C DEB

ActivoPO
NORAD 31001·DEBRIS·🇨🇳 China

Lanzado May 10, 1999 desde Taiyuan Satellite Launch Center

Loading…

Próximos Pases (próximas 24 horas)

TLE

ActualizadoSource: Space-Track

Época: Sep 14, 2026, 04:01 UTC

1 31001U 99025BCT 26257.16773404  .00001141  00000-0  31036-3 0  9997
2 31001  99.2399 158.8867 0146402  62.0401 299.5517 14.43581227 21582

Sigue FENGYUN 1C DEB en tiempo real con AllMySat

Download on the App Store